Time,TemperatureF,DewpointF,PressureIn,WindDirection,WindDirectionDegrees,WindSpeedMPH,WindSpeedGustMPH,Humidity,HourlyPrecipIn,Conditions,Clouds,dailyrainin,SoftwareType,DateUTC
2013-06-05 00:00:00,65.1,59.1,30.01,South,180,0.0,0.0,81,0.00,,,0.00,WUHU21623XXSP,2013-06-05 05:00:00,
2013-06-05 00:05:00,64.9,58.6,30.01,South,180,0.0,0.0,80,0.00,,,0.00,WUHU21623XXSP,2013-06-05 05:05:00,
2013-06-05 00:10:00,64.8,58.5,30.01,South,180,0.0,0.0,80,0.00,,,0.00,WUHU21623XXSP,2013-06-05 05:10:00,
2013-06-05 00:13:00,64.8,58.6,30.01,South,180,0.0,0.0,80,0.00,,,0.00,WUHU21623XXSP,2013-06-05 05:13:00,
2013-06-05 00:15:00,64.6,58.5,30.01,South,180,0.0,0.0,80,0.00,,,0.00,WUHU21623XXSP,2013-06-05 05:15:00,
2013-06-05 00:20:00,64.6,58.6,30.01,South,180,0.0,0.0,81,0.00,,,0.00,WUHU21623XXSP,2013-06-05 05:20:00,
2013-06-05 00:25:00,64.2,58.3,30.01,South,180,0.0,0.0,81,0.00,,,0.00,WUHU21623XXSP,2013-06-05 05:25:00,
2013-06-05 00:30:00,64.2,58.3,30.01,South,180,0.0,0.0,81,0.00,,,0.00,WUHU21623XXSP,2013-06-05 05:30:00,
2013-06-05 00:35:00,64.2,58.3,30.01,South,180,0.0,0.0,81,0.00,,,0.00,WUHU21623XXSP,2013-06-05 05:35:00,
2013-06-05 00:40:00,64.2,58.3,30.01,South,180,0.0,0.0,81,0.00,,,0.00,WUHU21623XXSP,2013-06-05 05:40:00,
2013-06-05 00:45:00,64.2,58.3,30.01,South,180,0.0,0.0,81,0.00,,,0.00,WUHU21623XXSP,2013-06-05 05:45:00,
2013-06-05 00:50:00,64.2,58.3,30.01,South,180,0.0,0.0,81,0.00,,,0.00,WUHU21623XXSP,2013-06-05 05:50:00,
2013-06-05 00:55:00,64.2,58.3,30.02,South,180,0.0,0.0,81,0.00,,,0.00,WUHU21623XXSP,2013-06-05 05:55:00,
2013-06-05 01:00:00,64.2,58.3,30.01,South,180,0.0,0.0,81,0.00,,,0.00,WUHU21623XXSP,2013-06-05 06:00:00,
2013-06-05 01:05:00,64.2,58.3,30.00,South,180,0.0,0.0,81,0.00,,,0.00,WUHU21623XXSP,2013-06-05 06:05:00,
2013-06-05 01:10:00,64.2,58.6,30.00,South,180,0.0,0.0,82,0.00,,,0.00,WUHU21623XXSP,2013-06-05 06:10:00,
2013-06-05 01:13:00,64.2,58.6,30.01,South,180,0.0,0.0,82,0.00,,,0.00,WUHU21623XXSP,2013-06-05 06:13:00,
2013-06-05 01:15:00,64.2,58.6,30.01,South,180,0.0,0.0,82,0.00,,,0.00,WUHU21623XXSP,2013-06-05 06:15:00,
2013-06-05 01:20:00,64.0,58.4,30.00,South,180,0.0,0.0,82,0.00,,,0.00,WUHU21623XXSP,2013-06-05 06:20:00,
2013-06-05 01:25:00,64.0,58.4,30.01,South,180,0.0,0.0,82,0.00,,,0.00,WUHU21623XXSP,2013-06-05 06:25:00,
2013-06-05 01:30:00,64.0,58.8,30.01,South,180,0.0,0.0,83,0.00,,,0.00,WUHU21623XXSP,2013-06-05 06:30:00,
2013-06-05 01:35:00,64.2,58.6,30.01,South,180,0.0,0.0,82,0.00,,,0.00,WUHU21623XXSP,2013-06-05 06:35:00,
2013-06-05 01:40:00,64.2,58.6,30.01,South,180,0.0,0.0,82,0.00,,,0.00,WUHU21623XXSP,2013-06-05 06:40:00,
2013-06-05 01:45:00,64.2,58.6,30.01,South,180,0.0,0.0,82,0.00,,,0.00,WUHU21623XXSP,2013-06-05 06:45:00,
2013-06-05 01:50:00,64.4,58.8,30.01,South,180,0.0,0.0,82,0.00,,,0.00,WUHU21623XXSP,2013-06-05 06:50:00,
2013-06-05 01:55:00,64.2,58.3,30.01,South,180,0.0,0.0,81,0.00,,,0.00,WUHU21623XXSP,2013-06-05 06:55:00,
2013-06-05 02:00:00,64.2,58.3,30.01,South,180,0.0,0.0,81,0.00,,,0.00,WUHU21623XXSP,2013-06-05 07:00:00,
2013-06-05 02:05:00,64.2,58.3,30.01,South,180,0.0,0.0,81,0.00,,,0.00,WUHU21623XXSP,2013-06-05 07:05:00,
2013-06-05 02:10:00,64.2,58.3,30.00,South,180,0.0,0.0,81,0.00,,,0.00,WUHU21623XXSP,2013-06-05 07:10:00,
2013-06-05 02:13:00,64.2,58.3,30.00,South,180,0.0,0.0,81,0.00,,,0.00,WUHU21623XXSP,2013-06-05 07:13:00,
2013-06-05 02:15:00,64.2,58.3,30.00,South,180,0.0,0.0,81,0.00,,,0.00,WUHU21623XXSP,2013-06-05 07:15:00,
2013-06-05 02:20:00,64.0,58.1,30.00,South,180,0.0,0.0,81,0.00,,,0.00,WUHU21623XXSP,2013-06-05 07:20:00,
2013-06-05 02:25:00,64.0,58.1,30.00,South,180,0.0,0.0,81,0.00,,,0.00,WUHU21623XXSP,2013-06-05 07:25:00,
2013-06-05 02:30:00,64.0,58.1,30.00,South,180,0.0,0.0,81,0.00,,,0.00,WUHU21623XXSP,2013-06-05 07:30:00,
2013-06-05 02:35:00,63.7,57.7,30.00,South,180,0.0,0.0,81,0.00,,,0.00,WUHU21623XXSP,2013-06-05 07:35:00,
2013-06-05 02:40:00,63.7,57.7,30.00,South,180,0.0,0.0,82,0.00,,,0.00,WUHU21623XXSP,2013-06-05 07:40:00,
2013-06-05 02:45:00,63.7,58.1,30.00,South,180,0.0,0.0,82,0.00,,,0.00,WUHU21623XXSP,2013-06-05 07:45:00,
2013-06-05 02:50:00,63.5,57.9,30.00,South,180,0.0,0.0,82,0.00,,,0.00,WUHU21623XXSP,2013-06-05 07:50:00,
2013-06-05 02:55:00,63.5,57.9,30.00,South,180,0.0,0.0,82,0.00,,,0.00,WUHU21623XXSP,2013-06-05 07:55:00,
2013-06-05 03:00:00,63.3,57.9,29.99,South,180,0.0,0.0,82,0.00,,,0.00,WUHU21623XXSP,2013-06-05 08:00:00,
2013-06-05 03:05:00,63.1,57.5,29.99,South,180,0.0,0.0,82,0.00,,,0.00,WUHU21623XXSP,2013-06-05 08:05:00,
2013-06-05 03:10:00,63.1,57.5,29.99,South,180,0.0,0.0,82,0.00,,,0.00,WUHU21623XXSP,2013-06-05 08:10:00,
2013-06-05 03:13:00,63.1,57.6,29.98,South,180,0.0,0.0,82,0.00,,,0.00,WUHU21623XXSP,2013-06-05 08:13:00,
2013-06-05 03:15:00,63.0,57.3,29.98,South,180,0.0,0.0,82,0.00,,,0.00,WUHU21623XXSP,2013-06-05 08:15:00,
2013-06-05 03:20:00,62.6,57.0,29.97,South,180,0.0,0.0,82,0.00,,,0.00,WUHU21623XXSP,2013-06-05 08:20:00,
2013-06-05 03:25:00,62.4,56.8,29.97,South,180,0.0,0.0,82,0.00,,,0.00,WUHU21623XXSP,2013-06-05 08:25:00,
2013-06-05 03:30:00,62.2,56.6,29.97,South,180,0.0,0.0,82,0.00,,,0.00,WUHU21623XXSP,2013-06-05 08:30:00,
2013-06-05 03:35:00,62.1,56.8,29.98,South,180,0.0,0.0,83,0.00,,,0.00,WUHU21623XXSP,2013-06-05 08:35:00,
2013-06-05 03:40:00,61.9,56.6,29.97,South,180,0.0,0.0,83,0.00,,,0.00,WUHU21623XXSP,2013-06-05 08:40:00,
2013-06-05 03:45:00,61.9,57.0,29.98,South,180,0.0,0.0,84,0.00,,,0.00,WUHU21623XXSP,2013-06-05 08:45:00,
2013-06-05 03:50:00,61.9,57.0,29.98,South,180,0.0,0.0,84,0.00,,,0.00,WUHU21623XXSP,2013-06-05 08:50:00,
2013-06-05 03:55:00,61.9,57.0,29.98,South,180,0.0,0.0,84,0.00,,,0.00,WUHU21623XXSP,2013-06-05 08:55:00,
2013-06-05 04:00:00,61.9,56.6,29.97,South,180,0.0,0.0,83,0.00,,,0.00,WUHU21623XXSP,2013-06-05 09:00:00,
2013-06-05 04:05:00,61.7,56.8,29.97,South,180,0.0,0.0,84,0.00,,,0.00,WUHU21623XXSP,2013-06-05 09:05:00,
2013-06-05 04:10:00,61.7,56.8,29.97,South,180,0.0,0.0,84,0.00,,,0.00,WUHU21623XXSP,2013-06-05 09:10:00,
2013-06-05 04:13:00,61.7,56.8,29.97,South,180,0.0,0.0,84,0.00,,,0.00,WUHU21623XXSP,2013-06-05 09:13:00,
2013-06-05 04:15:00,61.7,56.8,29.97,South,180,0.0,0.0,84,0.00,,,0.00,WUHU21623XXSP,2013-06-05 09:15:00,
2013-06-05 04:20:00,61.5,56.6,29.96,South,180,0.0,0.0,84,0.00,,,0.00,WUHU21623XXSP,2013-06-05 09:20:00,
2013-06-05 04:25:00,61.5,56.6,29.97,South,180,0.0,0.0,84,0.00,,,0.00,WUHU21623XXSP,2013-06-05 09:25:00,
2013-06-05 04:30:00,61.5,56.6,29.97,South,180,0.0,0.0,84,0.00,,,0.00,WUHU21623XXSP,2013-06-05 09:30:00,
2013-06-05 04:35:00,61.5,57.0,29.97,South,180,0.0,0.0,85,0.00,,,0.00,WUHU21623XXSP,2013-06-05 09:35:00,
2013-06-05 04:40:00,61.5,57.0,29.97,South,180,0.0,0.0,85,0.00,,,0.00,WUHU21623XXSP,2013-06-05 09:40:00,
2013-06-05 04:45:00,61.7,57.1,29.97,South,180,0.0,0.0,85,0.00,,,0.00,WUHU21623XXSP,2013-06-05 09:45:00,
2013-06-05 04:50:00,61.7,57.1,29.96,South,180,0.0,0.0,85,0.00,,,0.00,WUHU21623XXSP,2013-06-05 09:50:00,
2013-06-05 04:55:00,61.7,57.1,29.96,South,180,0.0,0.0,85,0.00,,,0.00,WUHU21623XXSP,2013-06-05 09:55:00,
2013-06-05 05:00:00,61.5,57.0,29.97,South,180,0.0,0.0,85,0.00,,,0.00,WUHU21623XXSP,2013-06-05 10:00:00,
2013-06-05 05:05:00,61.5,57.0,29.97,South,180,0.0,0.0,85,0.00,,,0.00,WUHU21623XXSP,2013-06-05 10:05:00,
2013-06-05 05:10:00,61.5,57.0,29.97,South,180,0.0,0.0,85,0.00,,,0.00,WUHU21623XXSP,2013-06-05 10:10:00,
2013-06-05 05:13:00,61.5,57.0,29.97,South,180,0.0,0.0,85,0.00,,,0.00,WUHU21623XXSP,2013-06-05 10:13:00,
2013-06-05 05:15:00,61.5,57.0,29.97,South,180,0.0,0.0,85,0.00,,,0.00,WUHU21623XXSP,2013-06-05 10:15:00,
2013-06-05 05:20:00,61.5,57.0,29.97,South,180,0.0,0.0,85,0.00,,,0.00,WUHU21623XXSP,2013-06-05 10:20:00,
2013-06-05 05:25:00,61.5,57.0,29.97,South,180,0.0,0.0,85,0.00,,,0.00,WUHU21623XXSP,2013-06-05 10:25:00,
2013-06-05 05:30:00,61.5,57.0,29.97,South,180,0.0,0.0,85,0.00,,,0.00,WUHU21623XXSP,2013-06-05 10:30:00,
2013-06-05 05:35:00,61.5,57.0,29.97,South,180,0.0,0.0,85,0.00,,,0.00,WUHU21623XXSP,2013-06-05 10:35:00,
2013-06-05 05:40:00,61.5,57.0,29.97,South,180,0.0,0.0,85,0.00,,,0.00,WUHU21623XXSP,2013-06-05 10:40:00,
2013-06-05 05:45:00,61.5,57.0,29.97,South,180,0.0,0.0,85,0.00,,,0.00,WUHU21623XXSP,2013-06-05 10:45:00,
2013-06-05 05:50:00,61.5,57.0,29.97,South,180,0.0,0.0,85,0.00,,,0.00,WUHU21623XXSP,2013-06-05 10:50:00,
2013-06-05 05:55:00,61.5,57.0,29.97,South,180,0.0,0.0,85,0.00,,,0.00,WUHU21623XXSP,2013-06-05 10:55:00,
2013-06-05 06:00:00,61.5,57.0,29.98,South,180,0.0,0.0,85,0.00,,,0.00,WUHU21623XXSP,2013-06-05 11:00:00,
2013-06-05 06:05:00,61.7,57.1,29.98,South,180,0.0,0.0,85,0.00,,,0.00,WUHU21623XXSP,2013-06-05 11:05:00,
2013-06-05 06:10:00,61.7,57.1,29.98,South,180,0.0,0.0,85,0.00,,,0.00,WUHU21623XXSP,2013-06-05 11:10:00,
2013-06-05 06:13:00,61.9,57.4,29.98,SSW,203,0.0,0.0,85,0.00,,,0.00,WUHU21623XXSP,2013-06-05 11:13:00,
2013-06-05 06:15:00,62.2,58.0,29.98,SSW,202,0.0,0.0,86,0.00,,,0.00,WUHU21623XXSP,2013-06-05 11:15:00,
2013-06-05 06:20:00,62.4,57.8,29.98,SSW,202,0.0,0.0,85,0.00,,,0.00,WUHU21623XXSP,2013-06-05 11:20:00,
2013-06-05 06:25:00,62.8,58.2,29.97,SSW,202,0.0,0.0,86,0.00,,,0.00,WUHU21623XXSP,2013-06-05 11:25:00,
2013-06-05 06:30:00,62.8,58.2,29.98,SSW,202,0.0,0.0,85,0.00,,,0.00,WUHU21623XXSP,2013-06-05 11:30:00,
2013-06-05 06:35:00,62.8,58.2,29.98,SSW,202,0.0,0.0,85,0.00,,,0.00,WUHU21623XXSP,2013-06-05 11:35:00,
2013-06-05 06:40:00,62.8,58.2,29.98,SSW,202,0.0,0.0,85,0.00,,,0.00,WUHU21623XXSP,2013-06-05 11:40:00,
2013-06-05 06:45:00,62.8,58.2,29.99,SSW,202,0.0,0.0,85,0.00,,,0.00,WUHU21623XXSP,2013-06-05 11:45:00,
2013-06-05 06:50:00,62.8,58.2,29.98,SSW,202,0.0,0.0,85,0.00,,,0.00,WUHU21623XXSP,2013-06-05 11:50:00,
2013-06-05 06:55:00,62.8,57.8,29.98,SSW,202,0.0,0.0,84,0.00,,,0.00,WUHU21623XXSP,2013-06-05 11:55:00,
2013-06-05 07:00:00,62.8,58.2,29.98,SSW,202,0.0,0.0,85,0.00,,,0.00,WUHU21623XXSP,2013-06-05 12:00:00,
2013-06-05 07:05:00,62.8,58.2,29.98,SSW,202,0.0,0.0,85,0.00,,,0.00,WUHU21623XXSP,2013-06-05 12:05:00,
2013-06-05 07:10:00,62.8,58.2,29.98,SSW,202,0.0,0.0,85,0.00,,,0.00,WUHU21623XXSP,2013-06-05 12:10:00,
2013-06-05 07:13:00,62.8,58.2,29.98,SSW,203,0.0,0.0,85,0.00,,,0.00,WUHU21623XXSP,2013-06-05 12:13:00,
2013-06-05 07:15:00,62.8,58.2,29.98,SSW,202,0.0,0.0,85,0.00,,,0.00,WUHU21623XXSP,2013-06-05 12:15:00,
2013-06-05 07:20:00,63.0,58.4,29.98,SSW,202,0.0,0.0,85,0.00,,,0.00,WUHU21623XXSP,2013-06-05 12:20:00,
2013-06-05 07:25:00,63.1,58.5,29.98,SSW,202,0.0,0.0,85,0.00,,,0.00,WUHU21623XXSP,2013-06-05 12:25:00,
2013-06-05 07:30:00,63.7,59.1,29.98,SSW,202,0.0,0.0,85,0.00,,,0.00,WUHU21623XXSP,2013-06-05 12:30:00,
2013-06-05 07:35:00,64.0,59.5,29.99,SSW,202,0.0,0.0,85,0.00,,,0.00,WUHU21623XXSP,2013-06-05 12:35:00,
2013-06-05 07:40:00,64.2,59.6,30.00,SSW,202,0.0,0.0,85,0.00,,,0.00,WUHU21623XXSP,2013-06-05 12:40:00,
2013-06-05 07:45:00,64.8,60.2,30.01,SSW,202,0.0,0.0,85,0.00,,,0.00,WUHU21623XXSP,2013-06-05 12:45:00,
2013-06-05 07:50:00,64.9,60.0,30.01,SSW,202,0.0,0.0,84,0.00,,,0.00,WUHU21623XXSP,2013-06-05 12:50:00,
2013-06-05 07:55:00,65.3,60.3,30.02,SSW,202,0.0,0.0,84,0.00,,,0.00,WUHU21623XXSP,2013-06-05 12:55:00,
2013-06-05 08:00:00,65.8,60.5,30.05,NNW,337,0.0,0.0,83,0.00,,,0.00,WUHU21623XXSP,2013-06-05 13:00:00,
2013-06-05 08:05:00,66.0,60.4,30.05,SSE,157,0.0,0.0,82,0.00,,,0.00,WUHU21623XXSP,2013-06-05 13:05:00,
2013-06-05 08:10:00,66.2,60.5,30.05,SW,225,0.0,0.0,82,0.00,,,0.00,WUHU21623XXSP,2013-06-05 13:10:00,
2013-06-05 08:13:00,66.2,60.6,30.05,WSW,248,0.0,0.0,82,0.00,,,0.00,WUHU21623XXSP,2013-06-05 13:13:00,
2013-06-05 08:15:00,66.4,60.7,30.06,WSW,247,0.0,0.0,82,0.00,,,0.00,WUHU21623XXSP,2013-06-05 13:15:00,
2013-06-05 08:20:00,66.2,60.5,30.07,WSW,247,0.0,0.0,82,0.00,,,0.00,WUHU21623XXSP,2013-06-05 13:20:00,
2013-06-05 08:25:00,65.8,60.5,30.08,WSW,247,0.0,0.0,83,0.00,,,0.00,WUHU21623XXSP,2013-06-05 13:25:00,
2013-06-05 08:30:00,65.3,60.3,30.08,WSW,247,0.0,0.0,84,0.00,,,0.00,WUHU21623XXSP,2013-06-05 13:30:00,
2013-06-05 08:35:00,64.9,60.0,30.08,WSW,247,0.0,0.0,84,0.00,,,0.00,WUHU21623XXSP,2013-06-05 13:35:00,
2013-06-05 08:40:00,64.6,60.0,30.09,WSW,247,0.0,0.0,85,0.00,,,0.00,WUHU21623XXSP,2013-06-05 13:40:00,
2013-06-05 08:45:00,64.2,59.6,30.09,WSW,247,0.0,0.0,85,0.00,,,0.00,WUHU21623XXSP,2013-06-05 13:45:00,
2013-06-05 08:50:00,64.0,59.5,30.09,WSW,247,0.0,0.0,85,0.00,,,0.00,WUHU21623XXSP,2013-06-05 13:50:00,
2013-06-05 08:55:00,64.0,59.8,30.09,WSW,247,0.0,0.0,86,0.00,,,0.00,WUHU21623XXSP,2013-06-05 13:55:00,
2013-06-05 09:00:00,63.7,59.4,30.10,WSW,247,0.0,0.0,86,0.00,,,0.00,WUHU21623XXSP,2013-06-05 14:00:00,
2013-06-05 09:05:00,63.7,59.4,30.09,SSW,202,0.0,0.0,86,0.00,,,0.00,WUHU21623XXSP,2013-06-05 14:05:00,
2013-06-05 09:10:00,63.7,59.4,30.09,SSW,202,0.0,0.0,86,0.00,,,0.00,WUHU21623XXSP,2013-06-05 14:10:00,
2013-06-05 09:13:00,63.7,59.4,30.09,SSW,203,0.0,0.0,86,0.00,,,0.00,WUHU21623XXSP,2013-06-05 14:13:00,
2013-06-05 09:15:00,63.7,59.4,30.08,SSW,202,0.0,0.0,86,0.00,,,0.00,WUHU21623XXSP,2013-06-05 14:15:00,
2013-06-05 09:20:00,63.5,59.3,30.08,SSW,202,0.0,0.0,86,0.00,,,0.00,WUHU21623XXSP,2013-06-05 14:20:00,
2013-06-05 09:25:00,63.5,59.3,30.07,SSW,202,0.0,0.0,86,0.00,,,0.00,WUHU21623XXSP,2013-06-05 14:25:00,
2013-06-05 09:30:00,63.5,59.6,30.07,SSW,202,0.0,0.0,87,0.00,,,0.00,WUHU21623XXSP,2013-06-05 14:30:00,
2013-06-05 09:35:00,63.3,59.4,30.06,SSW,202,0.0,0.0,87,0.00,,,0.00,WUHU21623XXSP,2013-06-05 14:35:00,
2013-06-05 09:40:00,63.3,59.4,30.05,South,180,0.0,0.0,87,0.00,,,0.00,WUHU21623XXSP,2013-06-05 14:40:00,
2013-06-05 09:45:00,63.3,59.4,30.05,South,180,0.0,0.0,87,0.00,,,0.00,WUHU21623XXSP,2013-06-05 14:45:00,
2013-06-05 09:50:00,63.3,59.4,30.06,South,180,0.0,0.0,87,0.00,,,0.00,WUHU21623XXSP,2013-06-05 14:50:00,
2013-06-05 09:55:00,63.3,59.4,30.06,South,180,0.0,0.0,88,0.00,,,0.00,WUHU21623XXSP,2013-06-05 14:55:00,
2013-06-05 10:00:00,63.1,59.6,30.04,South,180,0.0,0.0,88,0.00,,,0.00,WUHU21623XXSP,2013-06-05 15:00:00,
2013-06-05 10:05:00,63.1,59.6,30.04,South,180,0.0,0.0,88,0.00,,,0.00,WUHU21623XXSP,2013-06-05 15:05:00,
2013-06-05 10:10:00,63.1,59.6,30.04,South,180,0.0,0.0,88,0.00,,,0.00,WUHU21623XXSP,2013-06-05 15:10:00,
2013-06-05 10:13:00,63.1,59.5,30.04,South,180,0.0,0.0,88,0.00,,,0.00,WUHU21623XXSP,2013-06-05 15:13:00,
2013-06-05 10:15:00,63.1,59.9,30.04,SSW,202,0.0,0.0,89,0.00,,,0.00,WUHU21623XXSP,2013-06-05 15:15:00,
2013-06-05 10:20:00,63.1,59.9,30.03,SSW,202,0.0,0.0,89,0.00,,,0.00,WUHU21623XXSP,2013-06-05 15:20:00,
2013-06-05 10:25:00,63.1,59.9,30.02,South,180,0.0,0.0,89,0.00,,,0.00,WUHU21623XXSP,2013-06-05 15:25:00,
2013-06-05 10:31:00,63.1,59.9,30.00,SSW,202,0.0,0.0,89,0.00,,,0.00,WUHU21623XXSP,2013-06-05 15:31:00,
2013-06-05 10:36:00,63.1,59.9,30.00,South,180,0.0,0.0,89,0.00,,,0.00,WUHU21623XXSP,2013-06-05 15:36:00,
2013-06-05 10:41:00,63.3,60.1,30.00,SSW,202,0.0,0.0,89,0.00,,,0.00,WUHU21623XXSP,2013-06-05 15:41:00,
2013-06-05 10:46:00,63.3,60.1,30.00,SSW,202,0.0,0.0,89,0.00,,,0.00,WUHU21623XXSP,2013-06-05 15:46:00,
2013-06-05 10:51:00,63.7,60.5,30.00,SSW,202,0.0,0.0,89,0.00,,,0.00,WUHU21623XXSP,2013-06-05 15:51:00,
2013-06-05 10:56:00,63.7,60.5,29.99,SSW,202,0.0,0.0,89,0.00,,,0.00,WUHU21623XXSP,2013-06-05 15:56:00,
2013-06-05 11:01:00,64.0,60.8,29.99,SSW,202,0.0,0.0,89,0.00,,,0.00,WUHU21623XXSP,2013-06-05 16:01:00,
2013-06-05 11:06:00,64.2,61.0,29.99,SSW,202,0.0,0.0,89,0.00,,,0.00,WUHU21623XXSP,2013-06-05 16:06:00,
2013-06-05 11:11:00,64.2,61.3,29.98,SSW,202,0.0,0.0,90,0.00,,,0.00,WUHU21623XXSP,2013-06-05 16:11:00,
2013-06-05 11:13:00,64.6,61.6,29.97,SSW,203,0.0,0.0,90,0.00,,,0.00,WUHU21623XXSP,2013-06-05 16:13:00,
2013-06-05 11:16:00,64.9,61.8,29.98,SSW,202,0.0,0.0,90,0.00,,,0.00,WUHU21623XXSP,2013-06-05 16:16:00,
2013-06-05 11:21:00,65.1,62.2,29.98,SSW,202,0.0,0.0,90,0.00,,,0.00,WUHU21623XXSP,2013-06-05 16:21:00,
2013-06-05 11:26:00,65.7,62.7,29.97,SSW,202,0.0,0.0,90,0.00,,,0.00,WUHU21623XXSP,2013-06-05 16:26:00,
2013-06-05 11:31:00,66.4,63.3,29.96,SSW,202,0.0,0.0,90,0.00,,,0.00,WUHU21623XXSP,2013-06-05 16:31:00,
2013-06-05 11:36:00,66.7,63.7,29.95,SSW,202,0.0,0.0,90,0.00,,,0.00,WUHU21623XXSP,2013-06-05 16:36:00,
2013-06-05 11:41:00,66.7,63.7,29.95,SSW,202,0.0,0.0,90,0.00,,,0.00,WUHU21623XXSP,2013-06-05 16:41:00,
2013-06-05 12:26:00,73.2,66.0,29.97,SW,225,0.0,0.0,78,0.00,,,0.00,WUHU21623XXSP,2013-06-05 17:26:00,
2013-06-05 12:31:00,73.6,66.3,29.97,SW,225,0.0,0.0,78,0.00,,,0.00,WUHU21623XXSP,2013-06-05 17:31:00,
2013-06-05 12:48:00,74.5,65.3,29.96,WSW,247,0.0,1.6,73,0.00,,,0.00,WUHU21623XXSP,2013-06-05 17:48:00,
2013-06-05 12:53:00,74.5,65.7,29.96,WSW,247,0.0,1.6,74,0.00,,,0.00,WUHU21623XXSP,2013-06-05 17:53:00,
2013-06-05 12:58:00,74.5,64.5,29.95,South,180,2.0,2.0,71,0.00,,,0.00,WUHU21623XXSP,2013-06-05 17:58:00,
2013-06-05 13:03:00,74.5,64.5,29.95,South,180,2.0,2.0,71,0.00,,,0.00,WUHU21623XXSP,2013-06-05 18:03:00,
2013-06-05 14:20:00,77.5,66.1,29.93,WSW,247,0.0,14.3,68,0.00,,,0.00,WUHU21623XXSP,2013-06-05 19:20:00,
2013-06-05 14:25:00,77.2,65.8,29.93,WSW,247,8.1,9.6,68,0.00,,,0.00,WUHU21623XXSP,2013-06-05 19:25:00,
2013-06-05 14:30:00,77.2,66.3,29.93,WSW,247,8.1,8.1,69,0.00,,,0.00,WUHU21623XXSP,2013-06-05 19:30:00,
2013-06-05 14:41:00,77.5,66.6,29.93,WSW,247,8.1,11.9,69,0.00,,,0.00,WUHU21623XXSP,2013-06-05 19:41:00,
2013-06-05 14:46:00,77.5,66.6,29.94,WSW,247,16.6,16.6,69,0.00,,,0.00,WUHU21623XXSP,2013-06-05 19:46:00,
2013-06-05 14:51:00,77.5,66.6,29.94,WSW,247,0.0,16.6,69,0.00,,,0.00,WUHU21623XXSP,2013-06-05 19:51:00,
2013-06-05 14:56:00,77.4,66.4,29.94,WSW,247,7.8,13.9,69,0.00,,,0.00,WUHU21623XXSP,2013-06-05 19:56:00,
2013-06-05 15:01:00,77.2,66.3,29.94,WSW,247,0.0,7.8,69,0.00,,,0.00,WUHU21623XXSP,2013-06-05 20:01:00,
2013-06-05 15:06:00,77.2,65.8,29.94,WSW,247,0.0,0.0,68,0.00,,,0.00,WUHU21623XXSP,2013-06-05 20:06:00,
2013-06-05 15:11:00,77.0,66.1,29.94,WSW,247,12.5,12.5,69,0.00,,,0.00,WUHU21623XXSP,2013-06-05 20:11:00,
2013-06-05 15:13:00,77.2,66.5,29.94,WSW,248,0.0,0.0,69,0.00,,,0.00,WUHU21623XXSP,2013-06-05 20:13:00,
2013-06-05 15:16:00,77.2,66.3,29.94,WSW,247,0.0,12.5,69,0.00,,,0.00,WUHU21623XXSP,2013-06-05 20:16:00,
2013-06-05 15:21:00,77.4,66.4,29.94,SW,225,0.0,8.5,69,0.00,,,0.00,WUHU21623XXSP,2013-06-05 20:21:00,
2013-06-05 15:26:00,77.7,66.8,29.95,SSW,202,0.0,8.5,69,0.00,,,0.00,WUHU21623XXSP,2013-06-05 20:26:00,
2013-06-05 15:31:00,77.9,66.3,29.95,SW,225,0.0,0.0,68,0.00,,,0.00,WUHU21623XXSP,2013-06-05 20:31:00,
2013-06-05 15:36:00,77.5,66.1,29.94,WSW,247,17.9,17.9,68,0.00,,,0.00,WUHU21623XXSP,2013-06-05 20:36:00,
2013-06-05 15:42:00,77.2,66.3,29.94,WSW,247,14.8,17.9,69,0.00,,,0.00,WUHU21623XXSP,2013-06-05 20:42:00,
2013-06-05 15:47:00,77.0,66.3,29.94,SW,225,7.8,14.8,69,0.00,,,0.00,WUHU21623XXSP,2013-06-05 20:47:00,
2013-06-05 15:52:00,77.0,66.1,29.94,SW,225,0.0,7.8,69,0.00,,,0.00,WUHU21623XXSP,2013-06-05 20:52:00,
2013-06-05 15:57:00,77.0,66.1,29.94,SW,225,0.0,0.0,69,0.00,,,0.00,WUHU21623XXSP,2013-06-05 20:57:00,